Time,TemperatureF,DewpointF,PressureIn,WindDirection,WindDirectionDegrees,WindSpeedMPH,WindSpeedGustMPH,Humidity,HourlyPrecipIn,Conditions,Clouds,dailyrainin,SoftwareType,DateUTC
2013-12-16 00:09:00,43.3,32.7,30.03,SW,221,2.0,2.0,66,0.00,,,0.00,Wunderground v.1.15,2013-12-16 06:09:00,
2013-12-16 00:19:00,43.3,32.7,30.02,SE,136,2.0,6.0,66,0.00,,,0.00,Wunderground v.1.15,2013-12-16 06:19:00,
2013-12-16 00:29:00,43.4,32.8,30.02,South,169,3.0,3.0,66,0.00,,,0.00,Wunderground v.1.15,2013-12-16 06:29:00,
2013-12-16 00:39:00,43.3,32.7,30.02,SSW,207,2.0,2.0,66,0.00,,,0.00,Wunderground v.1.15,2013-12-16 06:39:00,
2013-12-16 00:49:00,43.1,32.9,30.02,ESE,114,1.0,6.0,67,0.00,,,0.00,Wunderground v.1.15,2013-12-16 06:49:00,
2013-12-16 00:54:00,43.0,32.8,30.02,ESE,115,1.0,6.0,67,0.00,,,0.00,Wunderground v.1.15,2013-12-16 06:54:00,
2013-12-16 01:04:00,42.9,33.1,30.01,SE,134,2.0,6.0,68,0.00,,,0.00,Wunderground v.1.15,2013-12-16 07:04:00,
2013-12-16 01:14:00,43.0,32.8,30.01,South,171,1.0,6.0,67,0.00,,,0.00,Wunderground v.1.15,2013-12-16 07:14:00,
2013-12-16 01:19:00,42.7,32.5,30.01,SSE,153,2.0,6.0,67,0.00,,,0.00,Wunderground v.1.15,2013-12-16 07:19:00,
2013-12-16 01:29:00,42.7,32.5,30.01,SE,132,2.0,2.0,67,0.00,,,0.00,Wunderground v.1.15,2013-12-16 07:29:00,
2013-12-16 01:39:00,42.6,32.8,30.01,SE,134,1.0,1.0,68,0.00,,,0.00,Wunderground v.1.15,2013-12-16 07:39:00,
2013-12-16 01:49:00,42.2,32.8,30.01,WNW,288,1.0,1.0,69,0.00,,,0.00,Wunderground v.1.15,2013-12-16 07:49:00,
2013-12-16 01:59:00,42.0,32.6,30.01,SE,132,0.0,6.0,69,0.00,,,0.00,Wunderground v.1.15,2013-12-16 07:59:00,
2013-12-16 02:09:00,42.2,32.8,30.01,South,181,0.0,6.0,69,0.00,,,0.00,Wunderground v.1.15,2013-12-16 08:09:00,
2013-12-16 02:19:00,42.3,32.5,30.01,SE,134,1.0,6.0,68,0.00,,,0.00,Wunderground v.1.15,2013-12-16 08:19:00,
2013-12-16 02:29:00,42.3,32.5,30.01,ESE,109,1.0,6.0,68,0.00,,,0.00,Wunderground v.1.15,2013-12-16 08:29:00,
2013-12-16 02:39:00,41.9,32.5,30.01,SE,127,1.0,1.0,69,0.00,,,0.00,Wunderground v.1.15,2013-12-16 08:39:00,
2013-12-16 02:49:00,42.0,32.6,30.01,SSE,156,1.0,6.0,69,0.00,,,0.00,Wunderground v.1.15,2013-12-16 08:49:00,
2013-12-16 02:59:00,41.8,32.7,30.01,SSW,211,1.0,6.0,70,0.00,,,0.00,Wunderground v.1.15,2013-12-16 08:59:00,
2013-12-16 03:09:00,41.6,32.5,30.02,South,189,1.0,6.0,70,0.00,,,0.00,Wunderground v.1.15,2013-12-16 09:09:00,
2013-12-16 03:19:00,41.8,32.7,30.01,SE,132,1.0,1.0,70,0.00,,,0.00,Wunderground v.1.15,2013-12-16 09:19:00,
2013-12-16 03:29:00,41.1,32.4,30.02,SSW,211,0.0,6.0,71,0.00,,,0.00,Wunderground v.1.15,2013-12-16 09:29:00,
2013-12-16 03:39:00,40.8,32.5,30.01,SE,131,1.0,6.0,72,0.00,,,0.00,Wunderground v.1.15,2013-12-16 09:39:00,
2013-12-16 03:49:00,40.9,32.6,30.01,ESE,119,1.0,1.0,72,0.00,,,0.00,Wunderground v.1.15,2013-12-16 09:49:00,
2013-12-16 03:59:00,41.1,32.4,30.02,SW,224,1.0,1.0,71,0.00,,,0.00,Wunderground v.1.15,2013-12-16 09:59:00,
2013-12-16 04:09:00,40.8,32.5,30.01,SE,132,1.0,6.0,72,0.00,,,0.00,Wunderground v.1.15,2013-12-16 10:09:00,
2013-12-16 04:24:00,40.7,32.4,30.01,ESE,121,0.0,6.0,72,0.00,,,0.00,Wunderground v.1.15,2013-12-16 10:24:00,
2013-12-16 04:34:00,40.7,32.4,30.01,SSW,211,1.0,6.0,72,0.00,,,0.00,Wunderground v.1.15,2013-12-16 10:34:00,
2013-12-16 04:44:00,40.5,32.2,30.02,SE,128,1.0,6.0,72,0.00,,,0.00,Wunderground v.1.15,2013-12-16 10:44:00,
2013-12-16 04:54:00,40.8,32.1,30.02,ESE,113,1.0,6.0,71,0.00,,,0.00,Wunderground v.1.15,2013-12-16 10:54:00,
2013-12-16 04:59:00,41.0,32.3,30.02,SE,131,1.0,1.0,71,0.00,,,0.00,Wunderground v.1.15,2013-12-16 10:59:00,
2013-12-16 05:09:00,41.0,32.3,30.03,SE,142,1.0,1.0,71,0.00,,,0.00,Wunderground v.1.15,2013-12-16 11:09:00,
2013-12-16 05:19:00,40.9,32.2,30.03,SE,127,1.0,7.0,71,0.00,,,0.00,Wunderground v.1.15,2013-12-16 11:19:00,
2013-12-16 05:29:00,40.9,32.2,30.03,ESE,121,1.0,1.0,71,0.00,,,0.00,Wunderground v.1.15,2013-12-16 11:29:00,
2013-12-16 05:39:00,40.7,32.0,30.03,SE,146,0.0,6.0,71,0.00,,,0.00,Wunderground v.1.15,2013-12-16 11:39:00,
2013-12-16 05:49:00,40.6,31.9,30.03,SE,132,0.0,6.0,71,0.00,,,0.00,Wunderground v.1.15,2013-12-16 11:49:00,
2013-12-16 05:59:00,40.5,31.8,30.04,ESE,107,1.0,1.0,71,0.00,,,0.00,Wunderground v.1.15,2013-12-16 11:59:00,
2013-12-16 06:09:00,40.5,31.8,30.04,SE,132,0.0,6.0,71,0.00,,,0.00,Wunderground v.1.15,2013-12-16 12:09:00,
2013-12-16 06:19:00,40.1,31.8,30.03,South,181,0.0,6.0,72,0.00,,,0.00,Wunderground v.1.15,2013-12-16 12:19:00,
2013-12-16 06:29:00,40.0,31.7,30.04,ESE,122,1.0,1.0,72,0.00,,,0.00,Wunderground v.1.15,2013-12-16 12:29:00,
2013-12-16 06:39:00,39.4,31.5,30.04,ESE,113,0.0,6.0,73,0.00,,,0.00,Wunderground v.1.15,2013-12-16 12:39:00,
2013-12-16 06:49:00,39.1,31.5,30.05,SSW,212,0.0,6.0,74,0.00,,,0.00,Wunderground v.1.15,2013-12-16 12:49:00,
2013-12-16 06:54:00,38.8,31.2,30.05,ESE,122,0.0,6.0,74,0.00,,,0.00,Wunderground v.1.15,2013-12-16 12:54:00,
2013-12-16 07:04:00,38.7,31.5,30.05,SE,128,0.0,6.0,75,0.00,,,0.00,Wunderground v.1.15,2013-12-16 13:04:00,
2013-12-16 07:14:00,39.0,31.4,30.05,ESE,109,0.0,6.0,74,0.00,,,0.00,Wunderground v.1.15,2013-12-16 13:14:00,
2013-12-16 07:24:00,38.4,31.2,30.05,ESE,117,0.0,6.0,75,0.00,,,0.00,Wunderground v.1.15,2013-12-16 13:24:00,
2013-12-16 07:29:00,38.4,31.2,30.05,South,176,0.0,6.0,75,0.00,,,0.00,Wunderground v.1.15,2013-12-16 13:29:00,
2013-12-16 07:39:00,38.5,31.3,30.05,ESE,113,0.0,6.0,75,0.00,,,0.00,Wunderground v.1.15,2013-12-16 13:39:00,
2013-12-16 07:49:00,38.7,31.5,30.05,ESE,120,0.0,6.0,75,0.00,,,0.00,Wunderground v.1.15,2013-12-16 13:49:00,
2013-12-16 07:59:00,38.7,31.5,30.05,SW,226,0.0,6.0,75,0.00,,,0.00,Wunderground v.1.15,2013-12-16 13:59:00,
2013-12-16 08:04:00,39.0,31.7,30.05,SE,127,0.0,6.0,75,0.00,,,0.00,Wunderground v.1.15,2013-12-16 14:04:00,
2013-12-16 08:14:00,41.5,32.8,30.06,SE,127,0.0,6.0,71,0.00,,,0.00,Wunderground v.1.15,2013-12-16 14:14:00,
2013-12-16 08:24:00,43.2,33.3,30.06,ESE,112,0.0,6.0,68,0.00,,,0.00,Wunderground v.1.15,2013-12-16 14:24:00,
2013-12-16 08:29:00,44.3,33.7,30.06,ESE,108,0.0,6.0,66,0.00,,,0.00,Wunderground v.1.15,2013-12-16 14:29:00,
2013-12-16 08:39:00,44.0,33.4,30.06,ESE,114,0.0,6.0,66,0.00,,,0.00,Wunderground v.1.15,2013-12-16 14:39:00,
2013-12-16 08:49:00,44.7,32.9,30.06,SE,144,1.0,6.0,63,0.00,,,0.00,Wunderground v.1.15,2013-12-16 14:49:00,
2013-12-16 08:54:00,45.1,33.2,30.06,ENE,77,1.0,6.0,63,0.00,,,0.00,Wunderground v.1.15,2013-12-16 14:54:00,
2013-12-16 09:04:00,45.6,33.3,30.06,ESE,115,1.0,6.0,62,0.00,,,0.00,Wunderground v.1.15,2013-12-16 15:04:00,
2013-12-16 09:14:00,45.8,33.1,30.07,ENE,68,2.0,6.0,61,0.00,,,0.00,Wunderground v.1.15,2013-12-16 15:14:00,
2013-12-16 09:19:00,46.1,33.8,30.07,SE,128,2.0,2.0,62,0.00,,,0.00,Wunderground v.1.15,2013-12-16 15:19:00,
2013-12-16 09:29:00,46.8,33.6,30.07,ESE,105,2.0,6.0,60,0.00,,,0.00,Wunderground v.1.15,2013-12-16 15:29:00,
2013-12-16 09:39:00,47.1,33.5,30.07,SSE,165,3.0,6.0,59,0.00,,,0.00,Wunderground v.1.15,2013-12-16 15:39:00,
2013-12-16 09:49:00,47.9,34.3,30.07,ESE,120,2.0,2.0,59,0.00,,,0.00,Wunderground v.1.15,2013-12-16 15:49:00,
2013-12-16 09:54:00,48.2,33.7,30.08,ESE,115,2.0,6.0,57,0.00,,,0.00,Wunderground v.1.15,2013-12-16 15:54:00,
2013-12-16 10:04:00,48.8,34.7,30.07,ESE,122,2.0,4.0,58,0.00,,,0.00,Wunderground v.1.15,2013-12-16 16:04:00,
2013-12-16 10:09:00,49.2,33.7,30.08,SSE,160,2.0,2.0,55,0.00,,,0.00,Wunderground v.1.15,2013-12-16 16:09:00,
2013-12-16 10:19:00,49.7,35.1,30.08,ESE,111,2.0,6.0,57,0.00,,,0.00,Wunderground v.1.15,2013-12-16 16:19:00,
2013-12-16 10:29:00,50.9,34.8,30.07,ESE,105,1.0,1.0,54,0.00,,,0.00,Wunderground v.1.15,2013-12-16 16:29:00,
2013-12-16 10:34:00,51.6,35.5,30.07,NE,56,1.0,6.0,54,0.00,,,0.00,Wunderground v.1.15,2013-12-16 16:34:00,
2013-12-16 10:44:00,51.9,34.3,30.07,SE,134,2.0,3.0,51,0.00,,,0.00,Wunderground v.1.15,2013-12-16 16:44:00,
2013-12-16 10:54:00,52.2,33.6,30.07,SE,132,3.0,3.0,49,0.00,,,0.00,Wunderground v.1.15,2013-12-16 16:54:00,
2013-12-16 11:04:00,52.8,33.6,30.07,ESE,109,2.0,6.0,48,0.00,,,0.00,Wunderground v.1.15,2013-12-16 17:04:00,
2013-12-16 11:09:00,53.1,33.9,30.06,ESE,115,2.0,2.0,48,0.00,,,0.00,Wunderground v.1.15,2013-12-16 17:09:00,
2013-12-16 11:19:00,53.6,34.4,30.06,ESE,114,2.0,6.0,48,0.00,,,0.00,Wunderground v.1.15,2013-12-16 17:19:00,
2013-12-16 11:29:00,53.9,34.1,30.05,ESE,121,2.0,6.0,47,0.00,,,0.00,Wunderground v.1.15,2013-12-16 17:29:00,
2013-12-16 11:39:00,55.3,35.9,30.04,SSE,161,1.0,1.0,48,0.00,,,0.00,Wunderground v.1.15,2013-12-16 17:39:00,
2013-12-16 11:49:00,56.5,35.4,30.03,SSE,159,0.0,6.0,45,0.00,,,0.00,Wunderground v.1.15,2013-12-16 17:49:00,
2013-12-16 11:59:00,56.3,35.2,30.02,SSW,192,2.0,6.0,45,0.00,,,0.00,Wunderground v.1.15,2013-12-16 17:59:00,
2013-12-16 12:04:00,56.7,35.0,30.02,ESE,123,1.0,6.0,44,0.00,,,0.00,Wunderground v.1.15,2013-12-16 18:04:00,
2013-12-16 12:14:00,56.1,35.0,30.02,ESE,107,2.0,6.0,45,0.00,,,0.00,Wunderground v.1.15,2013-12-16 18:14:00,
2013-12-16 12:24:00,57.7,35.9,30.01,WSW,250,0.0,6.0,44,0.00,,,0.00,Wunderground v.1.15,2013-12-16 18:24:00,
2013-12-16 12:34:00,57.8,35.4,30.01,ESE,115,2.0,6.0,43,0.00,,,0.00,Wunderground v.1.15,2013-12-16 18:34:00,
2013-12-16 12:44:00,58.1,35.7,30.01,SSE,165,2.0,6.0,43,0.00,,,0.00,Wunderground v.1.15,2013-12-16 18:44:00,
2013-12-16 12:54:00,58.8,35.1,30.01,SSE,159,1.0,6.0,41,0.00,,,0.00,Wunderground v.1.15,2013-12-16 18:54:00,
2013-12-16 13:04:00,58.7,35.0,30.00,ESE,121,2.0,6.0,41,0.00,,,0.00,Wunderground v.1.15,2013-12-16 19:04:00,
2013-12-16 13:14:00,58.4,34.8,30.00,ESE,118,3.0,4.0,41,0.00,,,0.00,Wunderground v.1.15,2013-12-16 19:14:00,
2013-12-16 13:24:00,59.3,35.6,29.99,South,186,3.0,6.0,41,0.00,,,0.00,Wunderground v.1.15,2013-12-16 19:24:00,
2013-12-16 13:34:00,60.2,36.4,29.99,SW,215,1.0,6.0,41,0.00,,,0.00,Wunderground v.1.15,2013-12-16 19:34:00,
2013-12-16 13:44:00,60.6,36.8,29.99,South,176,1.0,6.0,41,0.00,,,0.00,Wunderground v.1.15,2013-12-16 19:44:00,
2013-12-16 13:54:00,60.8,36.9,29.99,SE,126,2.0,2.0,41,0.00,,,0.00,Wunderground v.1.15,2013-12-16 19:54:00,
2013-12-16 14:04:00,60.6,36.8,29.99,South,172,2.0,8.0,41,0.00,,,0.00,Wunderground v.1.15,2013-12-16 20:04:00,
2013-12-16 14:14:00,60.7,36.8,29.99,East,101,2.0,6.0,41,0.00,,,0.00,Wunderground v.1.15,2013-12-16 20:14:00,
2013-12-16 14:24:00,60.7,36.2,29.99,SE,124,2.0,6.0,40,0.00,,,0.00,Wunderground v.1.15,2013-12-16 20:24:00,
2013-12-16 14:34:00,60.9,35.8,29.99,ESE,122,1.0,5.0,39,0.00,,,0.00,Wunderground v.1.15,2013-12-16 20:34:00,
2013-12-16 14:44:00,60.5,36.0,29.99,SW,229,3.0,6.0,40,0.00,,,0.00,Wunderground v.1.15,2013-12-16 20:44:00,
2013-12-16 14:54:00,60.8,36.3,29.99,ESE,115,2.0,6.0,40,0.00,,,0.00,Wunderground v.1.15,2013-12-16 20:54:00,
2013-12-16 15:04:00,60.6,36.1,29.99,SE,128,2.0,3.0,40,0.00,,,0.00,Wunderground v.1.15,2013-12-16 21:04:00,
2013-12-16 15:14:00,60.8,35.7,29.99,SE,128,1.0,6.0,39,0.00,,,0.00,Wunderground v.1.15,2013-12-16 21:14:00,
2013-12-16 15:24:00,60.6,34.8,30.00,SE,141,2.0,6.0,38,0.00,,,0.00,Wunderground v.1.15,2013-12-16 21:24:00,
2013-12-16 15:34:00,60.7,34.9,30.00,SSW,205,1.0,6.0,38,0.00,,,0.00,Wunderground v.1.15,2013-12-16 21:34:00,
2013-12-16 15:44:00,60.4,34.7,30.00,SE,134,1.0,6.0,38,0.00,,,0.00,Wunderground v.1.15,2013-12-16 21:44:00,
2013-12-16 15:54:00,59.7,34.0,30.00,SE,136,1.0,6.0,38,0.00,,,0.00,Wunderground v.1.15,2013-12-16 21:54:00,
2013-12-16 16:04:00,59.1,34.1,29.99,SSW,198,1.0,6.0,39,0.00,,,0.00,Wunderground v.1.15,2013-12-16 22:04:00,
2013-12-16 16:14:00,58.4,34.8,29.99,SSW,203,0.0,6.0,41,0.00,,,0.00,Wunderground v.1.15,2013-12-16 22:14:00,
2013-12-16 16:19:00,57.6,34.7,29.99,ESE,115,1.0,1.0,42,0.00,,,0.00,Wunderground v.1.15,2013-12-16 22:19:00,
2013-12-16 16:29:00,56.7,34.4,29.99,SSE,148,1.0,1.0,43,0.00,,,0.00,Wunderground v.1.15,2013-12-16 22:29:00,
2013-12-16 16:34:00,56.5,34.8,29.99,South,173,1.0,6.0,44,0.00,,,0.00,Wunderground v.1.15,2013-12-16 22:34:00,
2013-12-16 16:44:00,55.3,34.3,30.00,SE,124,0.0,6.0,45,0.00,,,0.00,Wunderground v.1.15,2013-12-16 22:44:00,
2013-12-16 16:54:00,54.7,34.8,29.99,East,100,1.0,6.0,47,0.00,,,0.00,Wunderground v.1.15,2013-12-16 22:54:00,
2013-12-16 17:04:00,53.9,35.2,29.99,South,184,0.0,6.0,49,0.00,,,0.00,Wunderground v.1.15,2013-12-16 23:04:00,
2013-12-16 17:09:00,53.7,34.5,30.00,SSE,156,0.0,6.0,48,0.00,,,0.00,Wunderground v.1.15,2013-12-16 23:09:00,
2013-12-16 17:19:00,53.0,34.8,30.00,SE,129,0.0,6.0,50,0.00,,,0.00,Wunderground v.1.15,2013-12-16 23:19:00,
2013-12-16 17:29:00,52.1,35.0,30.01,SW,235,0.0,6.0,52,0.00,,,0.00,Wunderground v.1.15,2013-12-16 23:29:00,
2013-12-16 17:39:00,51.6,35.0,30.01,SW,223,0.0,6.0,53,0.00,,,0.00,Wunderground v.1.15,2013-12-16 23:39:00,
2013-12-16 17:49:00,51.6,35.0,30.03,WSW,257,0.0,6.0,53,0.00,,,0.00,Wunderground v.1.15,2013-12-16 23:49:00,
2013-12-16 17:59:00,52.0,35.4,30.04,West,259,0.0,6.0,53,0.00,,,0.00,Wunderground v.1.15,2013-12-16 23:59:00,
2013-12-16 18:09:00,51.2,34.6,30.04,WSW,256,0.0,6.0,53,0.00,,,0.00,Wunderground v.1.15,2013-12-17 00:09:00,
2013-12-16 18:14:00,51.2,34.6,30.04,WSW,245,0.0,6.0,53,0.00,,,0.00,Wunderground v.1.15,2013-12-17 00:14:00,
2013-12-16 18:24:00,51.5,34.4,30.04,West,266,0.0,6.0,52,0.00,,,0.00,Wunderground v.1.15,2013-12-17 00:24:00,
2013-12-16 18:34:00,50.8,35.2,30.05,West,263,0.0,6.0,55,0.00,,,0.00,Wunderground v.1.15,2013-12-17 00:34:00,
2013-12-16 18:44:00,49.6,35.0,30.05,WNW,284,0.0,6.0,57,0.00,,,0.00,Wunderground v.1.15,2013-12-17 00:44:00,
2013-12-16 18:49:00,49.4,34.8,30.05,WNW,284,0.0,6.0,57,0.00,,,0.00,Wunderground v.1.15,2013-12-17 00:49:00,
2013-12-16 18:59:00,48.8,34.7,30.06,WNW,284,0.0,6.0,58,0.00,,,0.00,Wunderground v.1.15,2013-12-17 00:59:00,
2013-12-16 19:09:00,48.1,34.9,30.06,West,266,0.0,6.0,60,0.00,,,0.00,Wunderground v.1.15,2013-12-17 01:09:00,
2013-12-16 19:19:00,47.5,34.7,30.07,West,264,0.0,6.0,61,0.00,,,0.00,Wunderground v.1.15,2013-12-17 01:19:00,
2013-12-16 19:29:00,47.2,34.8,30.08,WSW,257,0.0,6.0,62,0.00,,,0.00,Wunderground v.1.15,2013-12-17 01:29:00,
2013-12-16 19:34:00,47.1,34.3,30.08,West,263,0.0,6.0,61,0.00,,,0.00,Wunderground v.1.15,2013-12-17 01:34:00,
2013-12-16 19:44:00,46.3,34.4,30.08,West,262,0.0,6.0,63,0.00,,,0.00,Wunderground v.1.15,2013-12-17 01:44:00,
2013-12-16 19:49:00,45.7,34.2,30.08,West,264,0.0,6.0,64,0.00,,,0.00,Wunderground v.1.15,2013-12-17 01:49:00,
2013-12-16 19:59:00,46.1,34.2,30.08,WSW,256,0.0,6.0,63,0.00,,,0.00,Wunderground v.1.15,2013-12-17 01:59:00,
2013-12-16 20:09:00,46.3,34.4,30.09,WSW,255,0.0,6.0,63,0.00,,,0.00,Wunderground v.1.15,2013-12-17 02:09:00,
2013-12-16 20:14:00,45.7,34.2,30.08,WSW,256,0.0,6.0,64,0.00,,,0.00,Wunderground v.1.15,2013-12-17 02:14:00,
2013-12-16 20:24:00,45.9,34.4,30.09,WNW,297,0.0,6.0,64,0.00,,,0.00,Wunderground v.1.15,2013-12-17 02:24:00,
2013-12-16 20:34:00,44.9,34.6,30.10,WSW,253,3.0,6.0,67,0.00,,,0.00,Wunderground v.1.15,2013-12-17 02:34:00,
2013-12-16 20:44:00,43.3,34.2,30.10,West,260,4.0,6.0,70,0.00,,,0.00,Wunderground v.1.15,2013-12-17 02:44:00,
2013-12-16 20:49:00,42.8,33.7,30.11,NNW,342,2.0,6.0,70,0.00,,,0.00,Wunderground v.1.15,2013-12-17 02:49:00,
2013-12-16 20:59:00,41.6,32.9,30.11,NW,312,2.0,2.0,71,0.00,,,0.00,Wunderground v.1.15,2013-12-17 02:59:00,
2013-12-16 21:09:00,40.9,32.9,30.11,WNW,293,2.0,2.0,73,0.00,,,0.00,Wunderground v.1.15,2013-12-17 03:09:00,
2013-12-16 21:19:00,40.4,32.8,30.11,WNW,297,1.0,6.0,74,0.00,,,0.00,Wunderground v.1.15,2013-12-17 03:19:00,
2013-12-16 21:29:00,40.1,32.5,30.11,West,260,1.0,1.0,74,0.00,,,0.00,Wunderground v.1.15,2013-12-17 03:29:00,
2013-12-16 21:34:00,39.8,32.2,30.11,WSW,243,0.0,6.0,74,0.00,,,0.00,Wunderground v.1.15,2013-12-17 03:34:00,
2013-12-16 21:44:00,39.1,32.2,30.12,WNW,291,0.0,6.0,76,0.00,,,0.00,Wunderground v.1.15,2013-12-17 03:44:00,
2013-12-16 21:49:00,38.9,32.0,30.12,WSW,248,0.0,6.0,76,0.00,,,0.00,Wunderground v.1.15,2013-12-17 03:49:00,
2013-12-16 21:59:00,38.6,31.7,30.12,WNW,284,0.0,6.0,76,0.00,,,0.00,Wunderground v.1.15,2013-12-17 03:59:00,
2013-12-16 22:09:00,38.1,31.2,30.12,WNW,284,0.0,6.0,76,0.00,,,0.00,Wunderground v.1.15,2013-12-17 04:09:00,
2013-12-16 22:14:00,37.7,31.1,30.13,WNW,283,0.0,6.0,77,0.00,,,0.00,Wunderground v.1.15,2013-12-17 04:14:00,
2013-12-16 22:24:00,36.6,31.0,30.13,West,269,0.0,6.0,80,0.00,,,0.00,Wunderground v.1.15,2013-12-17 04:24:00,
2013-12-16 22:29:00,36.4,31.1,30.14,West,269,0.0,6.0,81,0.00,,,0.00,Wunderground v.1.15,2013-12-17 04:29:00,
2013-12-16 22:34:00,36.3,31.0,30.14,West,269,0.0,6.0,81,0.00,,,0.00,Wunderground v.1.15,2013-12-17 04:34:00,
2013-12-16 22:44:00,36.1,31.1,30.14,West,269,0.0,6.0,82,0.00,,,0.00,Wunderground v.1.15,2013-12-17 04:44:00,
2013-12-16 22:54:00,34.9,30.3,30.14,West,269,0.0,6.0,83,0.00,,,0.00,Wunderground v.1.15,2013-12-17 04:54:00,
2013-12-16 22:59:00,34.5,30.2,30.14,West,269,0.0,6.0,84,0.00,,,0.00,Wunderground v.1.15,2013-12-17 04:59:00,
2013-12-16 23:04:00,34.1,29.8,30.14,West,269,0.0,6.0,84,0.00,,,0.00,Wunderground v.1.15,2013-12-17 05:04:00,
2013-12-16 23:09:00,33.7,29.7,30.14,West,269,0.0,6.0,85,0.00,,,0.00,Wunderground v.1.15,2013-12-17 05:09:00,
2013-12-16 23:14:00,33.3,29.6,30.14,West,268,0.0,6.0,86,0.00,,,0.00,Wunderground v.1.15,2013-12-17 05:14:00,
2013-12-16 23:24:00,32.9,29.7,30.14,West,269,0.0,6.0,88,0.00,,,0.00,Wunderground v.1.15,2013-12-17 05:24:00,
2013-12-16 23:34:00,32.7,29.5,30.14,West,269,0.0,6.0,88,0.00,,,0.00,Wunderground v.1.15,2013-12-17 05:34:00,
2013-12-16 23:44:00,33.0,30.1,30.14,West,269,0.0,6.0,89,0.00,,,0.00,Wunderground v.1.15,2013-12-17 05:44:00,
2013-12-16 23:54:00,33.6,30.4,30.14,West,269,0.0,6.0,88,0.00,,,0.00,Wunderground v.1.15,2013-12-17 05:54:00,